Weather History for Eagle Creek, IN

Change the Weather History Date:

Wednesday, May 8, 2013

  Actual Average Record
Temperature  
Mean Temperature 66 °F 60 °F  
Max Temperature 76 °F 70 °F 86 °F (2007)
Min Temperature 56 °F 50 °F 43 °F (2006)
Degree Days  
Heating Degree Days 0 6  
Month to date heating degree days 20 54  
Since 1 July heating degree days 5464 5249  
Cooling Degree Days 1 1  
Month to date cooling degree days 7 8  
Year to date cooling degree days 11 23  
Growing Degree Days 16 (Base 50)    
Moisture  
Dew Point 55 °F    
Average Humidity 68    
Maximum Humidity 93    
Minimum Humidity 43    
Precipitation  
Precipitation T in 0.19 in 1.25 in (2008)
Month to date precipitation 0.29 1.67  
Year to date precipitation 15.15 13.21  
Sea Level Pressure  
Sea Level Pressure 29.98 in    
Wind  
Wind Speed 2 mph (West)    
Max Wind Speed 13 mph    
Max Gust Speed 16 mph    
Visibility 10 miles    
Events      
T = Trace of Precipitation, MM = Missing Value Source: NWS Daily Summary

Daily Weather History Graph

Daily Weather History Graph

Search for Another Location

Airport:

Trip Planner

Search our weather history database for the weather conditions in past years. The results will help you decide how hot, cold, wet, or windy it might be!

Date:

Astronomy

May. 08, 2013 Rise Set
Actual Time 6:37 AM EDT 8:46 PM EDT
Civil Twilight 6:07 AM EDT 9:16 PM EDT
Nautical Twilight 5:30 AM EDT 9:53 PM EDT
Astronomical Twilight 4:50 AM EDT 10:33 PM EDT
Moon 5:44 AM EDT (5/8) 7:44 PM EDT (5/8)
Length of Visible Light 15h 09m
Length of Day
14h 09m
Waning Crescent, 2% of the Moon is Illuminated
May 8
Waning Crescent
May 9
New
May 18
First Quarter
May 25
Full
May 31
Last Quarter

Hourly Weather History & Observations

Time (EDT) Temp. Dew Point Humidity Pressure Visibility Wind Dir Wind Speed Gust Speed Precip Events Conditions
12:53 AM 60.1 °F 57.0 °F 90% 29.98 in 10.0 mi Calm Calm - N/A   Partly Cloudy
1:53 AM 60.1 °F 55.9 °F 86% 29.96 in 10.0 mi Calm Calm - N/A   Overcast
2:53 AM 59.0 °F 57.0 °F 93% 29.96 in 10.0 mi Calm Calm - N/A   Overcast
3:53 AM 61.0 °F 57.9 °F 90% 29.95 in 10.0 mi NNW 3.5 mph - N/A   Overcast
4:53 AM 60.1 °F 57.0 °F 90% 29.96 in 10.0 mi Calm Calm - N/A   Overcast
5:53 AM 60.1 °F 57.0 °F 90% 29.96 in 10.0 mi Calm Calm - N/A   Mostly Cloudy
6:53 AM 57.9 °F 55.9 °F 93% 29.98 in 8.0 mi Calm Calm - N/A   Scattered Clouds
7:53 AM 60.1 °F 57.9 °F 93% 29.99 in 10.0 mi Calm Calm - N/A   Clear
8:53 AM 64.0 °F 57.0 °F 78% 30.01 in 10.0 mi Calm Calm - N/A   Clear
9:53 AM 68.0 °F 54.0 °F 61% 30.02 in 10.0 mi Calm Calm - N/A   Clear
10:53 AM 71.1 °F 55.0 °F 57% 30.01 in 10.0 mi NNW 5.8 mph - N/A   Partly Cloudy
11:53 AM 73.0 °F 55.9 °F 55% 30.01 in 10.0 mi Variable 3.5 mph - N/A   Overcast
12:53 PM 73.9 °F 55.0 °F 52% 30.00 in 10.0 mi Variable 4.6 mph - N/A   Mostly Cloudy
1:53 PM 73.9 °F 55.0 °F 52% 30.00 in 10.0 mi NW 6.9 mph - N/A   Overcast
2:53 PM 73.0 °F 53.1 °F 49% 29.99 in 10.0 mi Calm Calm - N/A   Mostly Cloudy
3:53 PM 73.9 °F 53.1 °F 48% 29.97 in 10.0 mi Calm Calm - N/A   Mostly Cloudy
4:53 PM 73.9 °F 52.0 °F 46% 29.96 in 10.0 mi Calm Calm - 0.00 in   Overcast
5:53 PM 75.9 °F 52.0 °F 43% 29.95 in 10.0 mi Calm Calm - N/A   Partly Cloudy
6:53 PM 73.0 °F 54.0 °F 51% 29.95 in 10.0 mi West 8.1 mph - N/A   Partly Cloudy
7:53 PM 72.0 °F 50.0 °F 46% 29.96 in 10.0 mi Calm Calm - N/A   Clear
8:53 PM 70.0 °F 50.0 °F 49% 29.96 in 10.0 mi WSW 3.5 mph - N/A   Clear
9:53 PM 66.0 °F 53.1 °F 63% 29.98 in 10.0 mi Calm Calm - N/A   Clear
10:53 PM 64.9 °F 55.0 °F 70% 30.00 in 10.0 mi SE 6.9 mph - N/A   Mostly Cloudy
11:53 PM 64.0 °F 55.9 °F 75% 29.99 in 10.0 mi South 3.5 mph - N/A   Partly Cloudy